Zurück zum Katalog

PEGASUS DEB

AktivPO
NORAD 39926·DEBRIS·🇺🇸 United States

Gestartet May 19, 1994 von Vandenberg Space Force Base

Loading…

Nächste Überflüge (nächste 24 Stunden)

TLE

AktuellSource: Space-Track

Epoche: Sep 14, 2026, 12:37 UTC

1 39926U 94029AFZ 26257.52597286  .00000628  00000-0  16730-3 0  9995
2 39926  81.8445 178.1724 0294914 264.1167 219.9897 14.24748455635460

Verfolge PEGASUS DEB in Echtzeit mit AllMySat

Download on the App Store